Wind_Speed
9 9 8 6 7 7 6 6 5 5 6 6 6 7 7 8 9 10 11 12 12 12 13 13 13 13 13 14 14 14 15 15 16 17 18 19 20 21 21 22 23 24 24
8 8 7 6 6 5 5 3 3 4 5 5 6 6 7 8 8 9 10 11 11 11 12 13 13 13 13 13 13 14 15 15 15 16 17 18 19 20 21 22 23 24 25
7 8 6 5 4 3 3 3 3 4 4 5 6 6 7 8 8 9 9 10 10 11 12 13 13 13 13 14 14 15 16 16 16 16 17 18 19 20 21 22 23 24 25
6 5 4 3 3 2 2 2 3 4 4 5 5 6 7 8 9 9 10 10 11 12 13 14 14 14 14 15 15 16 16 17 17 17 17 18 19 20 21 22 23 24 25
5 4 3 2 2 2 2 3 3 3 4 4 5 6 7 8 9 10 11 11 12 13 14 15 15 16 16 16 17 17 18 19 19 20 20 20 21 21 22 23 24 24 25
4 3 3 1 1 2 2 3 3 3 4 4 5 7 8 9 10 10 11 12 13 14 15 16 16 17 18 18 19 19 20 21 21 22 23 23 23 24 24 25 26 26 26
3 2 1 1 2 2 2 3 3 4 4 5 6 7 8 10 10 11 13 14 15 16 16 17 17 18 19 20 21 22 22 23 23 24 24 25 26 26 27 27 28 29 29
2 2 1 2 2 2 3 3 3 4 5 6 7 8 9 10 11 13 14 15 16 17 18 18 19 20 21 22 23 24 25 26 26 26 27 27 28 28 29 30 31 31 32
0 1 2 2 3 3 3 4 4 5 6 7 8 9 10 12 13 14 16 17 18 19 20 20 21 22 23 24 26 27 28 28 28 28 29 30 30 30 31 32 32 33 34
1 2 2 3 3 3 3 4 5 6 7 8 9 10 12 13 14 16 17 18 19 20 21 22 23 24 25 26 28 29 29 29 29 30 30 31 32 32 32 33 34 34 35
1 2 2 2 3 3 4 5 6 7 8 10 11 12 14 15 16 17 19 20 21 22 23 24 26 27 28 29 30 31 31 31 31 31 32 32 33 33 34 34 35 35 36
2 2 2 3 4 5 6 7 8 9 10 12 13 15 16 17 18 19 21 22 23 24 25 26 27 29 30 31 32 33 33 33 33 33 33 33 33 33 34 34 35 36 36
5 5 5 5 6 7 8 9 10 11 13 14 15 17 18 19 20 21 23 24 25 26 27 28 29 30 32 32 33 34 34 34 33 34 34 34 34 34 34 34 34 35 35
7 7 8 8 8 9 10 11 12 13 15 16 17 19 20 21 22 23 25 26 27 27 28 29 30 31 32 33 35 35 35 34 34 35 35 35 35 35 34 34 33 34 34
10 10 10 10 11 11 12 13 14 16 17 18 19 20 21 23 24 25 26 27 28 29 30 31 32 33 34 35 36 36 36 35 36 36 36 36 35 35 34 33 33 33 33
12 11 11 12 13 13 14 15 16 17 19 20 21 22 24 25 26 27 28 29 30 31 32 33 34 35 36 36 37 37 37 37 37 36 37 37 36 35 34 34 33 33 33
13 12 13 14 14 15 16 17 18 19 21 22 24 25 26 27 28 29 30 31 32 33 34 35 35 36 37 37 38 38 37 37 37 37 37 37 36 35 35 34 33 33 33
14 14 15 16 17 18 18 19 20 22 23 25 26 27 28 29 30 31 32 33 34 34 35 36 36 37 38 39 39 39 39 39 39 38 37 36 35 35 35 34 34 33 33
16 17 17 18 19 20 21 22 23 24 26 27 28 29 30 31 32 33 34 34 35 36 37 37 38 38 39 40 40 40 40 40 39 38 37 36 35 36 35 34 33 33 33
19 19 19 20 21 23 24 24 25 27 28 29 30 31 32 33 34 35 35 36 37 38 38 39 40 40 40 41 41 41 40 40 39 39 38 37 36 36 35 34 33 32 32
21 21 22 22 24 25 26 27 28 29 31 32 33 33 34 35 37 37 37 38 39 40 41 41 41 42 42 42 42 42 41 40 40 38 37 36 36 35 35 34 33 32 31
23 24 25 26 26 27 28 30 31 32 33 34 35 36 36 37 38 39 40 40 41 41 42 42 42 43 43 43 43 43 42 40 39 38 37 36 35 35 35 33 32 31 30
26 26 27 28 29 30 31 32 33 34 34 35 36 38 38 39 40 41 42 42 43 44 44 44 44 44 44 45 45 43 42 40 39 38 36 35 35 35 34 32 31 30 29
27 28 29 30 31 33 34 35 35 36 36 37 38 40 41 42 43 44 44 45 45 45 45 46 46 46 45 45 45 43 42 40 39 37 36 35 35 34 33 31 30 29 28
29 30 31 33 34 35 36 37 38 38 39 40 41 42 43 44 45 46 46 46 46 47 47 47 47 47 46 45 45 43 41 40 39 37 36 35 35 34 32 30 29 29 28
31 32 34 35 36 37 38 39 40 40 42 42 43 44 45 46 47 47 47 47 48 48 48 48 48 48 47 46 45 43 42 40 38 38 37 35 34 32 31 30 29 28 27
Wind_Direction
200 196 198 212 228 235 243 260 273 294 302 310 316 318 319 318 317 315 314 313 314 313 312 312 311 310 307 303 300 297 295 291 287 282 278 273 270 267 264 262 259 257 255
190 190 192 200 209 220 238 266 287 298 300 306 315 320 324 325 323 322 320 319 318 318 317 317 316 315 312 310 306 304 301 297 292 287 283 278 274 270 267 263 261 258 256
171 174 181 184 190 211 239 276 294 299 302 312 318 323 329 329 328 328 328 327 326 326 324 323 320 317 314 312 309 306 304 301 296 291 286 283 279 274 270 267 264 261 258
145 153 165 175 192 214 251 285 303 303 307 312 319 328 334 335 336 337 338 338 335 331 328 326 324 322 319 315 310 307 304 301 298 293 289 286 284 281 277 271 267 264 260
134 136 155 169 201 244 274 300 306 298 302 310 321 334 338 339 340 341 340 339 337 334 330 328 325 323 321 318 313 308 305 302 298 295 291 288 286 283 280 277 272 267 263
120 118 131 161 220 250 271 288 286 287 296 313 327 334 337 339 341 341 341 339 337 335 332 331 329 326 322 319 315 311 308 304 300 296 293 290 287 284 281 278 274 270 266
114 122 150 206 211 231 258 274 281 291 304 318 328 332 334 336 337 338 339 339 338 335 334 332 329 326 323 320 318 315 311 307 303 300 296 293 289 285 282 279 275 272 267
108 143 181 219 230 245 264 280 289 299 309 317 324 328 330 331 333 335 336 336 335 334 332 330 327 325 323 321 319 317 314 311 306 302 298 295 291 287 283 279 276 272 269
54 241 244 241 244 253 268 281 289 297 305 312 317 322 326 328 329 329 330 330 330 331 329 326 324 324 323 322 320 318 316 313 309 305 302 298 295 290 286 282 277 272 269
232 231 234 237 242 249 266 279 286 291 299 307 314 318 321 322 323 324 324 325 327 327 326 325 324 323 322 321 320 318 316 313 310 307 305 302 298 293 289 285 280 275 270
225 225 235 253 267 271 276 283 289 295 300 305 310 313 314 315 317 319 320 321 323 324 324 323 323 322 322 322 321 319 316 313 311 308 306 303 300 296 291 287 283 278 272
327 305 292 292 291 289 287 288 292 299 302 304 307 309 310 312 313 314 316 318 319 320 320 321 321 322 321 321 320 319 316 313 311 310 308 305 302 298 293 290 285 280 275
322 317 312 307 301 297 293 292 295 299 300 301 303 305 307 309 310 310 312 315 316 316 317 318 319 319 319 319 319 318 316 314 312 310 309 307 304 300 296 292 288 283 278
323 317 311 306 300 295 294 295 296 297 296 297 299 302 305 306 307 309 311 313 314 315 315 316 317 317 318 318 318 318 316 314 312 311 309 307 304 301 297 293 289 285 280
316 316 309 301 296 294 294 293 293 293 293 293 295 298 301 303 304 307 309 310 312 313 314 315 315 315 316 317 317 317 316 314 312 310 309 307 304 301 298 295 291 287 282
306 305 299 293 290 290 290 289 288 288 289 290 292 295 298 300 302 304 306 308 309 310 311 313 313 314 315 315 316 315 314 313 312 310 308 306 304 302 298 295 292 289 284
296 293 287 284 284 286 286 286 286 287 289 290 292 294 296 298 300 302 303 305 307 308 310 312 313 313 314 315 315 314 314 313 312 310 308 306 304 302 299 296 294 290 286
289 287 286 284 285 286 285 285 286 288 290 291 293 294 296 297 299 301 303 304 306 308 310 311 311 312 313 313 314 314 314 313 311 309 308 305 304 303 300 297 294 290 286
286 285 286 287 286 286 286 286 286 287 289 290 291 293 295 297 299 300 302 304 305 307 309 310 310 311 312 313 313 313 313 312 311 309 307 305 304 303 301 298 294 290 286
281 284 285 286 287 287 287 287 287 287 289 290 292 293 294 296 298 300 301 303 305 307 308 309 309 310 311 313 312 312 312 311 310 308 306 305 304 302 300 297 295 291 287
284 286 287 287 288 288 288 288 288 289 289 291 292 293 294 296 297 299 300 302 303 305 307 309 309 309 310 311 311 310 309 309 308 307 305 304 304 302 299 297 295 291 288
285 286 287 286 287 288 289 289 289 289 291 291 292 293 294 295 297 299 300 301 302 304 305 306 307 308 309 310 310 309 307 307 306 305 304 302 302 302 299 297 294 292 289
285 285 286 286 287 288 289 289 289 289 290 291 292 293 294 296 297 298 299 300 302 303 303 304 305 306 307 307 308 307 305 305 305 304 303 301 301 301 299 297 295 293 290
285 286 286 286 287 287 288 288 289 290 290 290 291 292 293 295 296 298 299 300 301 301 301 303 303 304 305 306 306 305 304 303 303 302 302 301 300 301 299 296 294 293 291
286 287 287 287 287 287 288 289 289 290 291 291 292 293 293 295 295 297 298 298 299 300 300 301 301 302 303 303 303 303 302 302 301 300 300 300 300 299 298 296 294 293 291
287 287 286 286 287 287 288 289 290 290 291 292 292 293 293 294 295 295 296 297 298 298 299 299 299 300 301 301 301 301 300 299 298 297 298 298 298 297 296 295 294 292 291
Height
5862 5865 5867 5869 5870 5872 5873 5874 5875 5875 5875 5874 5874 5873 5872 5870 5869 5867 5865 5863 5862 5860 5858 5857 5855 5854 5852 5851 5850 5849 5847 5847 5846 5845 5844 5844 5844 5844 5844 5844 5845 5846 5847
5860 5863 5865 5867 5869 5870 5872 5872 5873 5873 5873 5872 5872 5871 5870 5868 5867 5865 5863 5861 5859 5857 5855 5854 5852 5851 5849 5848 5846 5845 5844 5843 5842 5841 5840 5839 5839 5839 5839 5839 5839 5840 5841
5860 5861 5864 5866 5867 5869 5870 5871 5871 5870 5870 5870 5869 5869 5867 5866 5864 5863 5861 5859 5857 5855 5853 5851 5849 5848 5846 5844 5843 5841 5840 5839 5838 5837 5836 5835 5834 5834 5834 5833 5834 5834 5835
5861 5862 5864 5865 5866 5867 5868 5869 5869 5869 5869 5868 5868 5867 5865 5864 5862 5860 5858 5856 5854 5852 5850 5848 5846 5844 5842 5841 5839 5838 5836 5835 5833 5832 5831 5830 5829 5828 5828 5828 5827 5827 5828
5861 5862 5863 5864 5865 5866 5866 5867 5867 5867 5867 5867 5866 5864 5863 5861 5860 5858 5856 5854 5852 5849 5847 5845 5843 5841 5839 5837 5835 5833 5832 5830 5828 5827 5826 5825 5823 5822 5821 5821 5821 5821 5821
5861 5862 5863 5863 5864 5864 5865 5865 5865 5865 5865 5864 5863 5862 5861 5859 5857 5855 5853 5851 5849 5847 5845 5842 5839 5837 5835 5833 5831 5829 5827 5825 5823 5821 5819 5818 5817 5816 5815 5814 5813 5813 5813
5861 5862 5862 5863 5863 5863 5864 5864 5864 5864 5863 5862 5861 5860 5858 5856 5855 5853 5851 5849 5846 5844 5841 5839 5836 5834 5831 5829 5826 5824 5821 5819 5817 5815 5813 5811 5809 5808 5807 5806 5805 5805 5805
5860 5861 5861 5862 5862 5862 5862 5862 5862 5861 5861 5860 5859 5857 5856 5854 5852 5850 5848 5846 5843 5840 5838 5835 5832 5830 5827 5824 5821 5818 5815 5812 5810 5807 5805 5803 5801 5800 5798 5798 5797 5796 5795
5860 5860 5860 5860 5861 5860 5860 5860 5859 5859 5858 5857 5856 5855 5853 5851 5849 5847 5845 5842 5840 5837 5834 5831 5828 5825 5822 5819 5816 5812 5809 5806 5803 5800 5797 5794 5792 5790 5789 5788 5787 5787 5786
5859 5859 5859 5859 5859 5858 5858 5858 5857 5857 5856 5855 5853 5851 5850 5848 5846 5844 5841 5839 5836 5833 5830 5827 5823 5820 5817 5813 5809 5806 5802 5798 5795 5792 5789 5786 5783 5781 5779 5777 5776 5775 5775
5857 5857 5857 5857 5856 5856 5855 5855 5854 5854 5852 5851 5850 5848 5846 5845 5842 5840 5837 5834 5831 5828 5825 5822 5818 5815 5811 5807 5803 5799 5795 5791 5787 5784 5780 5777 5774 5771 5768 5766 5764 5763 5763
5854 5853 5853 5853 5853 5852 5852 5852 5851 5850 5849 5847 5846 5845 5843 5841 5838 5836 5833 5830 5827 5824 5820 5816 5813 5809 5805 5801 5796 5792 5788 5783 5779 5775 5771 5767 5764 5761 5758 5755 5753 5751 5750
5850 5849 5849 5849 5849 5848 5848 5847 5847 5846 5845 5843 5842 5840 5838 5836 5833 5831 5828 5825 5822 5818 5814 5810 5806 5802 5798 5794 5789 5785 5780 5775 5771 5767 5762 5758 5755 5751 5748 5745 5742 5740 5738
5846 5845 5845 5844 5844 5844 5844 5843 5842 5841 5840 5839 5837 5836 5833 5831 5828 5825 5822 5819 5816 5812 5808 5804 5800 5796 5791 5787 5782 5777 5772 5767 5762 5758 5753 5749 5745 5741 5738 5735 5732 5729 5727
5841 5841 5840 5840 5840 5839 5839 5838 5837 5836 5835 5834 5832 5830 5828 5825 5822 5819 5816 5813 5809 5805 5801 5797 5793 5788 5784 5779 5774 5769 5764 5759 5754 5749 5744 5740 5735 5731 5728 5724 5721 5719 5717
5837 5837 5836 5836 5835 5835 5834 5833 5833 5832 5830 5828 5826 5824 5822 5819 5816 5813 5809 5806 5802 5798 5794 5789 5785 5780 5775 5771 5766 5761 5756 5750 5745 5740 5735 5730 5726 5722 5718 5714 5711 5708 5706
5833 5833 5832 5831 5831 5830 5829 5828 5827 5826 5824 5822 5820 5817 5815 5812 5809 5805 5802 5798 5794 5790 5786 5781 5776 5772 5767 5762 5757 5752 5746 5741 5736 5731 5725 5720 5716 5712 5708 5704 5701 5698 5695
5829 5828 5827 5826 5825 5824 5824 5822 5821 5819 5817 5815 5813 5810 5807 5804 5801 5797 5794 5790 5786 5782 5777 5773 5768 5763 5758 5753 5748 5742 5737 5732 5726 5721 5716 5711 5706 5702 5698 5694 5691 5687 5685
5823 5823 5822 5821 5820 5818 5817 5816 5814 5812 5810 5807 5805 5802 5799 5796 5793 5789 5785 5781 5777 5773 5768 5764 5759 5754 5749 5743 5738 5733 5727 5722 5716 5711 5706 5701 5696 5692 5687 5684 5681 5677 5674
5817 5817 5816 5815 5813 5812 5810 5808 5806 5804 5802 5799 5796 5794 5791 5787 5784 5780 5776 5772 5768 5763 5759 5754 5749 5744 5739 5733 5728 5722 5717 5712 5706 5701 5695 5691 5686 5682 5677 5673 5670 5667 5664
5810 5809 5808 5807 5806 5804 5802 5801 5798 5796 5793 5791 5788 5785 5781 5778 5774 5770 5766 5762 5758 5753 5748 5744 5739 5734 5729 5723 5718 5712 5707 5702 5696 5691 5686 5681 5676 5671 5667 5663 5660 5657 5654
5802 5801 5800 5799 5798 5796 5794 5792 5790 5787 5784 5782 5778 5775 5771 5768 5764 5760 5756 5751 5747 5742 5738 5733 5728 5723 5717 5712 5707 5701 5696 5691 5686 5681 5676 5671 5666 5662 5657 5654 5650 5647 5644
5794 5793 5792 5790 5789 5787 5785 5783 5780 5777 5774 5771 5768 5764 5760 5756 5753 5749 5744 5740 5735 5731 5726 5721 5717 5711 5706 5701 5696 5690 5685 5680 5675 5670 5666 5661 5656 5652 5648 5644 5640 5637 5634
5786 5784 5783 5781 5779 5777 5775 5772 5769 5766 5763 5760 5757 5753 5749 5745 5741 5736 5732 5728 5723 5719 5714 5709 5704 5700 5695 5690 5684 5679 5674 5669 5664 5660 5655 5651 5646 5642 5638 5635 5631 5628 5625
5776 5774 5773 5771 5769 5766 5764 5761 5758 5755 5752 5748 5744 5740 5736 5733 5729 5724 5720 5715 5711 5706 5701 5697 5692 5687 5683 5677 5672 5667 5662 5658 5653 5649 5645 5641 5637 5633 5629 5626 5622 5619 5616
5766 5764 5762 5760 5758 5755 5752 5749 5746 5743 5739 5735 5731 5727 5723 5720 5715 5711 5707 5702 5698 5693 5688 5683 5678 5674 5669 5664 5660 5655 5651 5646 5642 5638 5635 5631 5627 5623 5620 5616 5613 5610 5607